Flag for India Weather past 2 weeks in Ganganagar, Rajasthan, India

Now
77 °F

Passing clouds.


Feels Like: 79 °F
Forecast: 74 / 94 °F
Wind: 3 mph from Northeast

Location: Lahore Airport


UV Index: 7 (High)

Visibility: 4 mi


Pressure: 29.92 "Hg

Humidity: 61%

Dew point: 63 °F

Location of GanganagarLocation

Historic Weather in Ganganagar

°F

Ganganagar temperature yesterday

Maximum temperature yesterday: 81 °F (at 4:25 PM)
Minimum temperature yesterday: 63 °F (at 8:25 PM)
Average temperature yesterday: 69 °F

Past Weeks' High & Low Weather Summary

 TemperatureHumidityPressure
High95 °F (Apr 12, 3:30 PM)100% (Apr 18, 5:25 PM)30.01 "Hg (Apr 18, 5:25 PM)
Low59 °F (Apr 8, 6:30 AM)22% (Apr 10, 5:25 PM)29.74 "Hg (Apr 12, 4:00 PM)
Average75 °F55%29.87 "Hg
* Reported Apr 4 7:55 PM — Apr 19 7:55 PM, Ganganagar, Weather by CustomWeather, © 2014

Note: Actual official high and low records may vary slightly from our data, if they occured in-between our weather recording intervals... More about our weather records

Advertising

Historic Weather Conditions — Data for Previous 24 hours

 ConditionsComfort  
Time TempWeatherWind HumidityBarometerVisibility
7:55 PM
Apr 19
77 °FPassing clouds.3 mph61%29.92 "Hg4 mi
7:25 PM79 °FPassing clouds.5 mph58%29.89 "Hg4 mi
6:55 PM79 °FPassing clouds.5 mph54%29.89 "Hg4 mi
6:25 PM81 °FPassing clouds.No wind51%29.89 "Hg4 mi
5:55 PM82 °FPassing clouds.6 mph48%29.89 "Hg4 mi
5:25 PM82 °FPassing clouds.6 mph48%29.89 "Hg4 mi
4:55 PM84 °FPassing clouds.5 mph48%29.89 "Hg4 mi
4:25 PM84 °FPassing clouds.No wind48%29.89 "Hg4 mi
3:55 PM82 °FPassing clouds.5 mph51%29.89 "Hg4 mi
3:25 PM82 °FPassing clouds.5 mph51%29.92 "Hg4 mi
2:55 PM79 °FPassing clouds.5 mph58%29.92 "Hg4 mi
2:25 PM79 °FPassing clouds.No wind58%29.95 "Hg4 mi
1:55 PM77 °FPassing clouds.No wind61%29.95 "Hg4 mi
1:25 PM77 °FPassing clouds.No wind61%29.95 "Hg4 mi
12:55 PM75 °FClear.5 mph65%29.98 "Hg4 mi
12:25 PM75 °FClear.6 mph65%29.98 "Hg4 mi
11:55 AM73 °FClear.5 mph69%29.98 "Hg4 mi
11:25 AM73 °FClear.No wind69%29.98 "Hg4 mi
10:55 AM72 °FClear.No wind69%29.98 "Hg4 mi
10:25 AM72 °FClear.No wind69%29.98 "Hg4 mi
9:55 AM72 °FPassing clouds.No wind69%29.98 "Hg4 mi
9:25 AM70 °FPassing clouds.No wind73%29.98 "Hg3 mi
8:25 AM63 °FScattered clouds.3 mph68%29.98 "Hg3 mi
7:55 AM61 °FScattered clouds.No wind77%29.98 "Hg3 mi
7:25 AM61 °FScattered clouds.3 mph77%29.95 "Hg3 mi
6:55 AM59 °FScattered clouds.No wind82%29.95 "Hg3 mi
6:25 AM59 °FScattered clouds.No wind82%29.95 "Hg3 mi
5:25 AM59 °FPassing clouds.3 mph82%29.92 "Hg3 mi
4:55 AM59 °FPassing clouds.5 mph82%29.92 "Hg3 mi
4:25 AM59 °FPassing clouds.6 mph82%29.92 "Hg3 mi
3:55 AM59 °FPassing clouds.6 mph82%29.89 "Hg3 mi
3:25 AM59 °FPassing clouds.6 mph82%29.89 "Hg3 mi
2:55 AM59 °FPassing clouds.7 mph77%29.89 "Hg4 mi
2:25 AM59 °FPassing clouds.7 mph77%29.89 "Hg4 mi
1:55 AM61 °FPartly cloudy.5 mph77%29.89 "Hg4 mi
1:25 AM61 °FPartly cloudy.5 mph77%29.92 "Hg4 mi
12:55 AM61 °FPartly cloudy.5 mph77%29.92 "Hg4 mi
12:25 AM61 °FPartly cloudy.8 mph77%29.95 "Hg4 mi
11:55 PM
Apr 18
63 °FMostly cloudy.7 mph94%29.95 "Hg3 mi
11:25 PM63 °FThundershowers. Mostly cloudy.8 mph83%29.95 "Hg2 mi
10:55 PM63 °FThunderstorms. Mostly cloudy.12 mph94%29.95 "Hg2 mi
10:25 PM63 °FThunderstorms. Mostly cloudy.13 mph94%29.95 "Hg2 mi
9:55 PM63 °FThunderstorms. Mostly cloudy.12 mph94%29.95 "Hg2 mi
9:25 PM63 °FThunderstorms. Mostly cloudy.21 mph94%29.92 "Hg2 mi
Weather by CustomWeather, © 2014

See weather overview